Regional Weather Roundup
Issued by NWS State College, PA

Home | Current Version | Previous Version | Text Only | Print | Product List | Glossary Off
Versions: 1 2 3 4 5 6 7 8 9 10 11 12 13 14 15 16 17 18 19 20 21 22 23 24 25 26 27 28 29 30 31 32 33 34 35 36 37 38 39 40 41 42 43 44 45 46 47 48 49 50

000
ASUS41 KCTP 271403
RWRCTP

REGIONAL WEATHER ROUNDUP
NATIONAL WEATHER SERVICE STATE COLLEGE PA
1000 AM EDT WED MAY 27 2015

Note: "fair" indicates few or no clouds below 12,000 feet with no
significant weather and/or obstructions to visibility.

* = STATION THAT DOES NOT REPORT PRECIPITATION /E.G. RAIN...SNOW...ETC/
    THUNDER OR FOG.

PAZ002>004-007>009-013>016-020>023-029>032-271500-
WESTERN PENNSYLVANIA

CITY           SKY/WX    TMP DP  RH WIND       PRES   REMARKS
ERIE           PTSUNNY   73  62  68 SW13      30.06R
MEADVILLE      CLOUDY    69  62  78 SW8       30.11R
FRANKLIN*      CLOUDY    66  61  82 S12       30.14S
NEW CASTLE     PTSUNNY   72  66  81 SW8       30.13R
BEAVER COUNTY  CLOUDY    68  64  88 S10       30.14R
BUTLER*        CLOUDY    70  64  83 W9        30.17R
PITTSBURGH INT CLOUDY    69  64  84 SW6       30.15S
PITTSBURGH     CLOUDY    68  62  81 SW9       30.16R
INDIANA*       PTSUNNY   68  66  94 SW7G13    30.20S
LATROBE        PTSUNNY   68  68 100 SW13      30.18S
WASHINGTON CO* CLOUDY    70  64  83 S6        30.18S
$$

PAZ004>006-010>012-017>019-024>028-033>037-041-042-045-046-049>053-271500-
CENTRAL PENNSYLVANIA

CITY           SKY/WX    TMP DP  RH WIND       PRES   REMARKS
BRADFORD       CLOUDY    66  61  84 SW5       30.15R
DUBOIS         CLOUDY    67  63  87 SW9       30.15S
CLEARFIELD     LGT RAIN  67  63  87 S7        30.16R
JOHNSTOWN      RAIN      64  62  93 SW7       30.21R FOG
ALTOONA        CLOUDY    71  61  70 SW10      30.19R
STATE COLLEGE  CLOUDY    73  63  68 W8        30.15S
WILLIAMSPORT   CLOUDY    79  67  66 S10G17    30.10F
SELINSGROVE    MOSUNNY   77  67  71 S7        30.13S
FT INDIANTOWN  PTSUNNY   77  69  74 S7        30.14F
CAPITAL CITY   MOSUNNY   79  68  69 S8        30.13F
HARRISBURG     PTSUNNY   80  69  69 S10G18    30.13F
YORK           MOSUNNY   78  69  73 SW7       30.15F
$$

PAZ038>040-043-044-047-048-054-055-060>062-067>071-271500-
EASTERN PENNSYLVANIA

CITY           SKY/WX    TMP DP  RH WIND       PRES   REMARKS
SCRANTON       MOSUNNY   80  65  59 SW7       30.13F
MOUNT POCONO   PTSUNNY   74  64  71 VRB6      30.19S
ALLENTOWN      CLOUDY    77  68  73 S9        30.16S
QUAKERTOWN*    CLOUDY    75  70  83 S8        30.18S
READING        CLOUDY    77  67  71 S12       30.16R
LANCASTER      CLOUDY    76  68  76 SW10      30.16S
COATESVILLE    CLOUDY    75  72  88 SW6       30.19F
POTTSTOWN      CLOUDY    76  70  82 SW9       30.19S
BLUE BELL      CLOUDY    77  70  78 SW8       30.18S
DOYLESTOWN     CLOUDY    73  68  84 VRB6      30.17S
WILLOW GROVE   NOT AVBL
NORTH PHILA    CLOUDY    77  66  68 SW12      30.19S
PHILADELPHIA   CLOUDY    77  68  73 SW14      30.18S
$$


USA.gov is the U.S. government's official web portal to all federal, state and local government web resources and services.